www.pogodaiklimat.ru

Погода и климат >> Архив погоды >> Индонезия >> Джакарта порт


ПОГОДА в Джакарта порту

  • Прогноз погоды в Джакарта порту
  • Монитор погоды в Джакарта порту

АРХИВ ПОГОДЫ в Джакарта порту

Время (UTC), дата Ветер
(напр.,м/с)
 
Видим.   Явления Облачность Т
(С)
Тd
(С)
f
(%)
Тe
(С)
Тes
(С)
Комфортность P
(гПа)
Po
(гПа)
Тmin
(С)
Tmax
(С)
R
(мм)
R24
(мм)
S
(см)
09 15.08 СВ 5 10 км 6/3 600 м
[Sc As trans Ci fib]
+31.4 +22.7 60 +41 +42 опасность
перегрева
1012.0 1011.6
12 15.08 В 4 6000 м 6/3 600 м
[Sc As trans Ci fib]
+28.8 +23.0 71 +39 +39 очень
душно
1011.5 1011.1 +32.0
15 15.08 СВ 3 5000 м 8/3 600 м
[Sc As trans Ci fib]
+28.2 +24.4 80 +40 +40 очень
душно
1013.4 1013.0
18 15.08 штиль 0 5000 м 8/3 600 м
[Sc As trans Ci fib]
+27.6 +24.5 83 +39 +39 очень
душно
1011.9 1011.5
21 15.08 штиль 0 5000 м 8/3 600 м
[Sc As trans Ci fib]
+27.0 +24.4 86 +38 +38 очень
душно
1011.5 1011.1
00 16.08 штиль 0 7000 м 10/3 600 м
[Sc Ac As Ci fib]
+26.8 +23.9 84 +37 +38 очень
душно
1012.9 1012.5 +26.6
03 16.08 штиль 0 9000 м 10/3 600 м
[Sc As trans Cs]
+29.3 +23.7 72 +40 +47 очень
душно
1013.8 1013.4
06 16.08 СВ 4 10 км 10/1 700 м
[Sc As trans Cs]
+31.8 +24.0 63 +43 +49 опасность
перегрева
1011.4 1011.0
09 16.08 СВ 4 10 км 10/1 700 м
[Sc As trans Cs]
+29.8 +23.6 69 +40 +42 очень
душно
1010.2 1009.8
12 16.08 СВ 3 5000 м 10/4 630 м
[Sc Ac As Cs]
+28.6 +24.0 76 +40 +40 очень
душно
1011.5 1011.1 +31.8
15 16.08 ЮВ 2 5000 м 10/4 630 м
[Sc Ac As Cs]
+28.2 +24.5 80 +40 +40 очень
душно
1013.5 1013.1
18 16.08 ЮВ 2 5000 м 10/4 630 м
[Sc Ac As Cs]
+27.0 +24.1 84 +37 +37 очень
душно
1012.8 1012.4
21 16.08 штиль 0 5000 м 10/4 630 м
[Sc Ac As Cs]
+26.8 +23.6 83 +37 +37 очень
душно
1012.1 1011.7
00 17.08 штиль 0 7000 м 10/4 630 м
[Sc As trans Ci fib]
+27.2 +23.4 80 +37 +38 очень
душно
1013.2 1012.8 +26.8
03 17.08 ЮВ 2 10 км 9/4 630 м
[Sc As trans Ci fib]
+29.2 +23.1 70 +39 +45 очень
душно
1014.2 1013.8
06 17.08 ЮВ 2 10 км 10/3 630 м
[Sc As trans]
+31.6 +23.9 64 +43 +48 опасность
перегрева
1011.5 1011.1
09 17.08 СВ 4 10 км 5/1 630 м
[Sc As trans Ci fib]
+31.0 +22.3 60 +40 +42 очень
душно
1010.0 1009.6
12 17.08 СВ 3 5000 м 8/3 630 м
[Sc As trans Ci fib]
+28.6 +23.4 73 +39 +39 очень
душно
1011.6 1011.2 +31.8
15 17.08 В 2 5000 м 9/4 630 м
[Sc As trans Ci fib]
+27.5 +23.6 79 +37 +37 очень
душно
1012.9 1012.5
18 17.08 СВ 3 5000 м 9/4 630 м
[Sc As trans Ci fib]
+27.0 +23.8 83 +37 +37 очень
душно
1012.2 1011.8
21 17.08 В 2 5000 м 6/1 630 м
[Sc As trans Ci fib]
+25.8 +21.0 75 +32 +32 очень
душно
1011.5 1011.1
00 18.08 ЮВ 2 4000 м мгла 8/1 630 м
[Sc As trans Ci fib]
+24.6 +20.7 79 +31 +32 очень
душно
1012.9 1012.5 +24.6
03 18.08 В 3 12 км 8/1 750 м
[Sc As trans Ci fib]
+30.8 +19.3 50 +36 +43 очень
душно
1013.4 1013.0
06 18.08 СВ 4 12 км 8/1 750 м
[Sc As trans Ci fib]
+32.0 +20.8 52 +39 +47 очень
душно
1011.2 1010.8
09 18.08 СВ 4 12 км 8/1 750 м
[Sc As trans Ci fib]
+30.6 +21.8 59 +39 +41 очень
душно
1010.2 1009.8
12 18.08 В 4 6000 м 8/1 750 м
[Sc As trans Ci fib]
+28.6 +21.5 65 +36 +36 очень
душно
1011.9 1011.5 +32.8
15 18.08 Ю 2 6000 м 6/1 750 м
[Sc As trans Ci fib]
+27.4 +23.0 77 +37 +37 очень
душно
1013.8 1013.4
18 18.08 ЮВ 2 6000 м 8/3 700 м
[Sc As trans Ci fib]
+27.2 +22.5 76 +36 +36 очень
душно
1013.3 1012.9
21 18.08 Ю 2 6000 м 8/1 750 м
[Sc As trans Ci fib]
+26.0 +22.2 80 +34 +34 очень
душно
1012.3 1011.9
00 19.08 Ю 2 9000 м 8/1 750 м
[Sc As trans Ci fib]
+25.0 +20.5 76 +31 +32 очень
душно
1013.3 1012.9 +24.6
03 19.08 СЗ 2 12 км 4/1 700 м
[Sc As trans Ci fib]
+28.8 +22.1 67 +37 +50 очень
душно
1013.6 1013.2
06 19.08 СЗ 4 12 км 4/1 700 м
[Sc As trans Ci fib]
+31.3 +22.8 61 +41 +51 опасность
перегрева
1011.4 1011.1
09 19.08 С 3 12 км 6/1 700 м
[Sc As trans Ci fib]
+30.4 +23.5 67 +41 +44 опасность
перегрева
1010.0 1009.7
12 19.08 С 3 5000 м 4/1 700 м
[Sc As trans Ci fib]
+28.4 +23.8 76 +39 +39 очень
душно
1011.9 1011.6 +31.3
15 19.08 штиль 0 5000 м 5/3 600 м
[Sc As trans Ci fib]
+28.0 +23.4 76 +38 +38 очень
душно
1013.3 1012.9
18 19.08 штиль 0 5000 м 6/3 600 м
[Sc As trans Ci fib]
+27.4 +23.4 79 +37 +37 очень
душно
1012.0 1011.6
21 19.08 штиль 0 5000 м 6/3 600 м
[Sc As trans Ci fib]
+26.0 +21.5 76 +33 +33 очень
душно
1011.6 1011.2
00 20.08 штиль 0 7000 м 6/1 600 м
[Sc As trans Ci fib]
+25.6 +21.1 76 +32 +34 очень
душно
1012.2 1011.8 +25.0
03 20.08 СВ 3 10 км 6/1 600 м
[Sc As trans Ci fib]
+29.2 +21.5 63 +37 +45 очень
душно
1012.8 1012.4
06 20.08 СВ 5 10 км 6/1 600 м
[Sc As trans Ci fib]
+31.6 +23.3 61 +42 +49 опасность
перегрева
1010.1 1009.7
09 20.08 СВ 4 10 км 6/1 600 м
[Sc As trans Ci fib]
+31.6 +22.0 57 +40 +42 очень
душно
1008.9 1008.5
12 20.08 В 5 6000 м 6/1 600 м
[Sc As trans Ci fib]
+29.2 +20.9 61 +36 +36 очень
душно
1010.2 1009.8 +32.2
15 20.08 В 3 5000 м 6/1 600 м
[Sc As trans Ci fib]
+28.0 +22.5 72 +37 +37 очень
душно
1011.5 1011.1
18 20.08 В 3 5000 м 6/3 600 м
[Sc As trans Ci fib]
+27.0 +19.7 64 +33 +33 очень
душно
1010.6 1010.2
21 20.08 В 4 5000 м 6/3 600 м
[Sc As trans Ci fib]
+26.4 +20.7 71 +33 +33 очень
душно
1010.1 1009.7
00 21.08 ЮВ 3 8000 м 6/1 600 м
[Sc As trans Ci fib]
+26.6 +20.9 71 +33 +34 очень
душно
1011.0 1010.6 +25.6
03 21.08 В 4 11 км 4/1 600 м
[Sc As trans Ci fib]
+31.6 +22.0 57 +40 +48 очень
душно
1012.0 1011.6
06 21.08 В 7 12 км 4/1 600 м
[Sc As trans Ci fib]
+33.4 +19.7 45 +39 +43 очень
душно
1009.8 1009.4
09 21.08 В 6 12 км 1/1 600 м
[Sc As trans Ci fib]
+32.6 +20.1 48 +39 +41 очень
душно
1008.7 1008.3
12 21.08 В 4 5000 м 5/1 600 м
[Sc As trans Ci fib]
+28.8 +22.7 70 +38 +38 очень
душно
1011.4 1011.0 +34.2
15 21.08 ЮВ 2 5000 м 5/1 600 м
[Sc As trans Ci fib]
+27.8 +23.5 77 +38 +38 очень
душно
1012.9 1012.5
18 21.08 ЮВ 2 5000 м 4/1 600 м
[Sc As trans Ci fib]
+27.2 +23.7 81 +37 +37 очень
душно
1012.7 1012.3
21 21.08 штиль 0 5000 м 5/1 600 м
[Sc As trans Ci fib]
+27.0 +23.8 83 +37 +37 очень
душно
1012.3 1011.9
00 22.08 ЮВ 2 6000 м 6/1 600 м
[Sc Ac As Cs]
+27.0 +22.6 77 +36 +37 очень
душно
1014.0 1013.6 +26.6
03 22.08 В 2 10 км 9/3 600 м
[Sc Ac As Cs]
+31.3 +22.8 61 +41 +48 опасность
перегрева
1013.8 1013.4
06 22.08 СВ 5 12 км 8/3 600 м
[Cu med, cong Ac As Cs]
+31.2 +23.5 64 +42 +47 опасность
перегрева
1011.4 1011.0

 

Местоположение метеостанции Джакарта порт (Индонезия): широта -6.10 долгота 106.87 высота над уровнем моря 2 м.

В архиве по умолчанию представлена погода в Джакарта порту за последнюю неделю. Архивные данные за месяц целиком и за предыдущие месяцы, начиная с января 2011 года, Вы можете получить, выбрав интересующий диапазон дат из раскрывающегося списка и нажав кнопку "Ввод!".


*Определитесь, кто Вы:
робот инопланетянин человек

Внимание! Время в таблицах - всемирное. Для получения местного времени необходимо прибавить поправку, которая равна 7 ч.

Смотрите также архив погоды в соседних городах и на ближайших метеорологических станциях:

Погода в Джакарте (Индонезия) (10 км)
Погода в Аэропорту Сукарно-Хатта (Индонезия) (24 км)
Погода в Чуруге (Индонезия) (28 км)
Погода в Цитеко (Индонезия) (67 км)
Погода в Серанге (Индонезия) (82 км)
Погода в Бандунге (Индонезия) (119 км)
Погода в Сиребоне (Индонезия) (170 км)
Погода в Танджунгкаранге (Индонезия) (218 км)
Погода в Тегале (Индонезия) (265 км)
Погода в Чилачапе (Индонезия) (298 км)

Пояснения к столбцам:

Ветер - указаны скорость ветра в м/с - средняя за 10 мин, порывы в срок и между сроками (в фигурных скобках) и направление, откуда дует ветер: С - северный, СВ - северо-восточный, В - восточный, ЮВ - юго-восточный, Ю - южный, ЮЗ - юго-западный, З - западный, СЗ - северо-западный.
Видимость - горизонтальная дальность видимости в метрах или километрах. При видимости от 1 до 10 км при отсутствии осадков обычно наблюдается дымка, при ухудшении видимости до 1 км и менее - туман. В сухую погоду видимость может ухудшаться дымом, пылью или мглою.
Явления - указаны атмосферные явления, наблюдавшиеся в срок или в последний час перед сроком; фигурными скобками обозначены явления, наблюдавшиеся между сроками (за 1-3 часа до срока); квадратными скобками обозначены град или гололедные отложения с указанием их диаметра в мм.
Облачность - указаны через наклонную черту общая и нижняя облачность в баллах и высота нижней границы облаков в метрах; квадратными скобками обозначены формы облаков: Ci - перистые, Cs - перисто-слоистые, Cc - перисто-кучевые, Ac - высококучевые, As - высокослоистые, Sc - слоисто-кучевые, Ns - слоисто-дождевые, Cu - кучевые, Cb - кучево-дождевые. Подробнее классификацию облаков см. в Атласе облаков (PDF).
T - Температура воздуха - температура, измеренная на высоте 2 м над землей.
Td - Температура точки росы - температура, при понижении до которой содержащийся в воздухе водяной пар достигнет насыщения.
f - Относительная влажность воздуха - влажноcть воздуха, измеренная на высоте 2 м над землей.
Te - Эффективная температура - температура, которую ощущает одетый по сезону человек в тени. Характеристика душности погоды. При расчете учитывается влияние влажности воздуха и скорости ветра на теплоощущения человека.
Tes - Эффективная температура на солнце - температура, которую ощущает человек, с поправкой на солнечный нагрев. Характеристика знойности погоды. Зависит от высоты солнца над горизонтом, облачности и скорости ветра. Ночью, в пасмурную погоду, а также при ветре 12 м/с и более поправка равна нулю.
P - Атмосферное давление - приведенное к уровню моря атмосферное давление.
Po - Атмосферное давление - измеренное на уровне метеостанции атмосферное давление.
Tmin - Минимальная температура - минимум температуры воздуха на высоте 2 м над землей.
Tmax - Максимальная температура - максимум температуры воздуха на высоте 2 м над землей.
R - Количество осадков - Количество выпавших осадков за период времени, мм. При наведении курсора мыши на число - период времени, за который выпало указанное количество осадков.
R24 - Количество осадков - Количество выпавших осадков за 24 часа, мм.
S - Снежный покров - Высота снежного покрова, см. При наведении курсора мыши на число - состояние снежного покрова и степень покрытия местности в баллах.